• In Uzbekistan
  • List of Countries
  • For 7 days
  • Water Temperature
  • Weather Map
  • Weather Widgets
  • user-avatar
    Login

    Hourly Weather Iquitos

    Today, 24 February, Monday

    Time Temperature Precipitation Wind Pressure Humidity
    00:00 +23°C° 0 mm 0 mps 751 mmHg 96%
    01:00 +23°C° 0 mm 0 mps 751 mmHg 96%
    02:00 +23°C° 0 mm 0 mps 750 mmHg 96%
    03:00 +23°C° 0 mm 0 mps 750 mmHg 97%
    04:00 +23°C° 0 mm 0 mps 749 mmHg 97%
    05:00 +23°C° 0 mm 0 mps 750 mmHg 96%
    06:00 +23°C° 0 mm 0 mps 751 mmHg 95%
    07:00 +24°C° 0 mm 0 mps 752 mmHg 93%
    08:00 +25°C° 0.7 mm 0 mps 752 mmHg 89%
    09:00 +27°C° 0.7 mm 0 mps 752 mmHg 85%
    10:00 +28°C° 0.7 mm 0 mps 752 mmHg 81%
    11:00 +29°C° 1 mm 0 mps 751 mmHg 77%
    12:00 +30°C° 1 mm 0 mps 750 mmHg 73%
    13:00 +31°C° 1 mm 0 mps 749 mmHg 69%
    14:00 +30°C° 1.4 mm 0 mps 748 mmHg 73%
    15:00 +30°C° 1.4 mm 0 mps 747 mmHg 76%
    16:00 +29°C° 1.4 mm 0 mps 746 mmHg 79%
    17:00 +28°C° 0.2 mm 0 mps 747 mmHg 83%
    18:00 +26°C° 0.2 mm 0 mps 747 mmHg 88%
    19:00 +25°C° 0.2 mm 0 mps 748 mmHg 92%
    20:00 +25°C° 0 mm 0 mps 748 mmHg 92%
    21:00 +24°C° 0 mm 0 mps 749 mmHg 92%
    22:00 +24°C° 0 mm 0 mps 750 mmHg 93%
    23:00 +24°C° 0 mm 0 mps 749 mmHg 93%

    Tomorrow, 25 February, Tuesday

    Time Temperature Precipitation Wind Pressure Humidity
    00:00 +24°C° 0 mm 0 mps 749 mmHg 93%
    01:00 +24°C° 0 mm 0 mps 749 mmHg 94%
    02:00 +23°C° 0 mm 0 mps 749 mmHg 95%
    03:00 +23°C° 0 mm 0 mps 748 mmHg 96%
    04:00 +23°C° 0 mm 0 mps 748 mmHg 96%
    05:00 +23°C° 0.3 mm 0 mps 749 mmHg 96%
    06:00 +24°C° 0.3 mm 0 mps 749 mmHg 95%
    07:00 +24°C° 0.3 mm 0 mps 750 mmHg 94%
    08:00 +27°C° 0 mm 0 mps 750 mmHg 82%
    09:00 +30°C° 0 mm 0 mps 751 mmHg 70%
    10:00 +33°C° 0 mm 0 mps 751 mmHg 58%
    11:00 +36°C° 0 mm 1 mps 750 mmHg 53%
    12:00 +37°C° 0 mm 1 mps 749 mmHg 49%
    13:00 +39°C° 0 mm 1 mps 748 mmHg 44%
    14:00 +36°C° 0.2 mm 1 mps 747 mmHg 51%
    15:00 +35°C° 0.2 mm 1 mps 746 mmHg 59%
    16:00 +34°C° 0.2 mm 1 mps 745 mmHg 66%
    17:00 +32°C° 0.5 mm 1 mps 746 mmHg 74%
    18:00 +30°C° 0.5 mm 1 mps 746 mmHg 82%
    19:00 +28°C° 0.5 mm 1 mps 747 mmHg 91%
    20:00 +27°C° 1 mm 1 mps 748 mmHg 92%
    21:00 +27°C° 1 mm 1 mps 748 mmHg 94%
    22:00 +25°C° 1 mm 0 mps 749 mmHg 96%
    23:00 +24°C° 0.2 mm 0 mps 749 mmHg 96%

    Day after tomorrow, 26 February, Wednesday

    Time Temperature Precipitation Wind Pressure Humidity
    00:00 +24°C° 0.2 mm 0 mps 749 mmHg 97%
    01:00 +24°C° 0.2 mm 0 mps 748 mmHg 97%
    02:00 +24°C° 0 mm 0 mps 748 mmHg 97%
    03:00 +24°C° 0 mm 0 mps 748 mmHg 98%
    04:00 +24°C° 0 mm 0 mps 747 mmHg 98%
    05:00 +24°C° 0 mm 0 mps 748 mmHg 97%
    06:00 +24°C° 0 mm 0 mps 749 mmHg 96%
    07:00 +24°C° 0 mm 0 mps 749 mmHg 95%
    08:00 +29°C° 0 mm 1 mps 750 mmHg 84%
    09:00 +31°C° 0 mm 1 mps 750 mmHg 73%
    10:00 +34°C° 0 mm 1 mps 751 mmHg 62%
    11:00 +34°C° 0.9 mm 1 mps 750 mmHg 61%
    12:00 +35°C° 0.9 mm 1 mps 749 mmHg 61%
    13:00 +35°C° 0.9 mm 1 mps 747 mmHg 60%
    14:00 +35°C° 0.4 mm 1 mps 747 mmHg 61%
    15:00 +35°C° 0.4 mm 1 mps 746 mmHg 62%
    16:00 +34°C° 0.4 mm 1 mps 746 mmHg 62%
    17:00 +32°C° 2.4 mm 1 mps 747 mmHg 74%
    18:00 +29°C° 2.4 mm 1 mps 747 mmHg 86%
    19:00 +26°C° 2.4 mm 1 mps 748 mmHg 97%
    20:00 +26°C° 7.6 mm 1 mps 748 mmHg 98%
    21:00 +26°C° 7.6 mm 1 mps 749 mmHg 98%
    22:00 +26°C° 7.6 mm 1 mps 750 mmHg 99%
    23:00 +26°C° 5.5 mm 1 mps 750 mmHg 99%

    27 February, Thursday

    Time Temperature Precipitation Wind Pressure Humidity
    00:00 +26°C° 5.5 mm 1 mps 749 mmHg 99%
    01:00 +26°C° 5.5 mm 1 mps 749 mmHg 99%
    02:00 +25°C° 0.8 mm 1 mps 749 mmHg 99%
    03:00 +25°C° 0.8 mm 1 mps 749 mmHg 99%
    04:00 +23°C° 0.8 mm 0 mps 749 mmHg 99%
    05:00 +23°C° 1.7 mm 0 mps 749 mmHg 99%
    06:00 +23°C° 1.7 mm 0 mps 750 mmHg 99%
    07:00 +23°C° 1.7 mm 0 mps 751 mmHg 99%
    08:00 +25°C° 5.6 mm 1 mps 751 mmHg 99%
    09:00 +25°C° 5.6 mm 1 mps 752 mmHg 99%
    10:00 +25°C° 5.6 mm 1 mps 752 mmHg 99%
    11:00 +26°C° 2.3 mm 1 mps 752 mmHg 98%
    12:00 +24°C° 2.3 mm 0 mps 751 mmHg 98%
    13:00 +24°C° 2.3 mm 0 mps 751 mmHg 97%
    14:00 +25°C° 0.2 mm 0 mps 750 mmHg 96%
    15:00 +25°C° 0.2 mm 0 mps 749 mmHg 95%
    16:00 +25°C° 0.2 mm 0 mps 749 mmHg 94%
    17:00 +25°C° 0 mm 0 mps 749 mmHg 95%
    18:00 +24°C° 0 mm 0 mps 749 mmHg 97%
    19:00 +26°C° 0 mm 1 mps 749 mmHg 98%
    20:00 +24°C° 0 mm 0 mps 750 mmHg 98%
    21:00 +23°C° 0 mm 0 mps 750 mmHg 98%
    22:00 +23°C° 0 mm 0 mps 750 mmHg 98%
    23:00 +23°C° 0 mm 0 mps 750 mmHg 98%

    28 February, Friday

    Time Temperature Precipitation Wind Pressure Humidity
    00:00 +23°C° 0 mm 0 mps 750 mmHg 98%
    01:00 +23°C° 0 mm 0 mps 749 mmHg 99%
    02:00 +23°C° 0 mm 0 mps 749 mmHg 99%
    03:00 +23°C° 0 mm 0 mps 749 mmHg 99%
    04:00 +23°C° 0 mm 0 mps 749 mmHg 99%
    05:00 +23°C° 0 mm 0 mps 750 mmHg 98%
    06:00 +23°C° 0 mm 0 mps 751 mmHg 98%
    07:00 +23°C° 0 mm 0 mps 751 mmHg 97%
    08:00 +23°C° 0 mm 0 mps 751 mmHg 95%
    09:00 +24°C° 0 mm 0 mps 752 mmHg 93%
    10:00 +24°C° 0 mm 0 mps 752 mmHg 91%
    11:00 +25°C° 0 mm 0 mps 751 mmHg 88%
    12:00 +25°C° 0 mm 0 mps 750 mmHg 86%
    13:00 +26°C° 0 mm 0 mps 750 mmHg 83%
    14:00 +26°C° 0 mm 0 mps 749 mmHg 80%
    15:00 +27°C° 0 mm 0 mps 748 mmHg 78%
    16:00 +28°C° 0 mm 0 mps 747 mmHg 75%
    17:00 +27°C° 0 mm 0 mps 748 mmHg 81%
    18:00 +25°C° 0 mm 0 mps 748 mmHg 86%
    19:00 +24°C° 0 mm 0 mps 749 mmHg 92%
    20:00 +24°C° 0 mm 0 mps 749 mmHg 92%
    21:00 +24°C° 0 mm 0 mps 750 mmHg 92%
    22:00 +24°C° 0 mm 0 mps 750 mmHg 92%
    23:00 +23°C° 0 mm 0 mps 750 mmHg 93%

    29 February, Saturday

    Time Temperature Precipitation Wind Pressure Humidity
    00:00 +23°C° 0 mm 0 mps 750 mmHg 94%
    01:00 +23°C° 0 mm 0 mps 749 mmHg 96%
    02:00 +23°C° 0 mm 0 mps 749 mmHg 96%
    03:00 +23°C° 0 mm 0 mps 749 mmHg 97%
    04:00 +22°C° 0 mm 0 mps 749 mmHg 98%
    05:00 +23°C° 0 mm 0 mps 750 mmHg 96%
    06:00 +23°C° 0 mm 0 mps 750 mmHg 94%
    07:00 +26°C° 0 mm 1 mps 751 mmHg 93%
    08:00 +27°C° 0 mm 1 mps 751 mmHg 86%
    09:00 +29°C° 0 mm 1 mps 752 mmHg 79%
    10:00 +31°C° 0 mm 1 mps 752 mmHg 72%
    11:00 +32°C° 0.2 mm 1 mps 751 mmHg 68%
    12:00 +33°C° 0.2 mm 1 mps 750 mmHg 64%
    13:00 +35°C° 0.2 mm 1 mps 750 mmHg 59%
    14:00 +35°C° 0.4 mm 1 mps 749 mmHg 59%
    15:00 +34°C° 0.4 mm 1 mps 748 mmHg 59%
    16:00 +34°C° 0.4 mm 1 mps 747 mmHg 60%
    17:00 +32°C° 0.2 mm 1 mps 748 mmHg 69%
    18:00 +28°C° 0.2 mm 0 mps 748 mmHg 78%
    19:00 +26°C° 0.2 mm 0 mps 749 mmHg 88%
    20:00 +25°C° 0.1 mm 0 mps 750 mmHg 90%
    21:00 +25°C° 0.1 mm 0 mps 750 mmHg 92%
    22:00 +24°C° 0.1 mm 0 mps 751 mmHg 94%
    23:00 +24°C° 0 mm 0 mps 751 mmHg 95%
    Show more